Regional Weather Roundup
Issued by NWS

Home | Current Version | Previous Version | Graphics & Text | Print | Product List | Glossary Off
Versions: 1 2 3 4 5 6 7 8 9 10 11 12 13 14 15 16 17 18 19 20 21 22 23 24 25 26 27 28 29 30 31 32 33 34 35 36 37 38 39 40 41 42 43 44 45 46 47 48 49 50

000
ASUS43 KTOP 290859
RWRKS

WEATHER ROUNDUP FOR KANSAS
NATIONAL WEATHER SERVICE GOODLAND KS
400 AM CDT SUN MAR 29 2015

NOTE:  "FAIR" INDICATES FEW OR NO CLOUDS BELOW 12,000 FEET WITH NO
SIGNIFICANT WEATHER AND/OR OBSTRUCTIONS TO VISIBILITY.

KSZ001>006-013>018-027>032-041>047-291000-
NORTHWEST KANSAS

CITY           SKY/WX    TMP DP  RH WIND       PRES   REMARKS
GOODLAND       PTCLDY    65  29  25 NW24G30   29.91R
HAYS           PTCLDY    57  41  54 SW18G24   29.79F
HILL CITY      CLOUDY    63  44  50 NW10G20   29.87R
RUSSELL        PTCLDY    56  43  61 S20       29.78F
$$

KSZ061>065-074>080-084>089-291000-
SOUTHWEST KANSAS

CITY           SKY/WX    TMP DP  RH WIND       PRES   REMARKS
DODGE CITY     CLEAR     53  43  68 S15       29.86F
ELKHART          N/A     52  29  41 SW6         N/A
GARDEN CITY    CLEAR     46  40  79 S7        29.85F
GREAT BEND     CLEAR     54  41  62 S17       29.82F
LIBERAL        CLEAR     52  37  58 S12       29.90S
$$

KSZ066>073-081>083-090>101-291000-
SOUTHEAST KANSAS

CITY           SKY/WX    TMP DP  RH WIND       PRES   REMARKS
CHANUTE        CLEAR     41  38  89 SE12      29.96F
COFFEYVILLE    CLEAR     44  38  79 S9        29.99F
HUTCHINSON     CLEAR     51  41  68 S15       29.87F
MEDICINE LODGE   N/A     49  42  77 SE8       29.88F
NEWTON         CLEAR     48  37  66 S15       29.89F
PARSONS        CLEAR     45  39  79 S6        29.99F
WICHITA INTL   CLEAR     50  42  74 S14       29.89F
WICHITA JABRA  CLEAR     49  42  77 S17G25    29.89F
WINFIELD       CLEAR     47  42  83 SE12      29.93F
$$

KSZ007>012-019>026-033>040-048>060-102>105-291000-
NORTHEAST KANSAS

CITY           SKY/WX    TMP DP  RH WIND       PRES   REMARKS
CONCORDIA      PTCLDY    47  40  76 S7        29.83F
EMPORIA        CLEAR     43  38  82 S16G23    29.90F
LAWRENCE       CLEAR     38  33  82 SE14      29.95F WCI  30
MANHATTAN      CLEAR     46  39  76 S10       29.87F
OLATHE IND     CLEAR     37  32  82 SE14      29.98F WCI  28
OLATHE EXE     CLEAR     37  33  85 S13       29.97F WCI  29
SALINA         CLEAR     53  40  61 S17G23    29.83F
TOPEKA BILLARD PTCLDY    40  34  79 SE13      29.93F WCI  32
TOPEKA FORBES  PTCLDY    42  35  76 S16       29.90F
$$


USA.gov is the U.S. government's official web portal to all federal, state and local government web resources and services.